Wind_Gust
14 14 15 15 14 14 14 13 11 11 9 9 10 10 9 8 8 8 8 8 9 9 10 11 12 12 12 11 11 12 15 15 16 15 15 13 11 12 12 13 10 11
14 14 13 14 13 11 12 11 12 11 11 9 8 9 9 9 8 8 8 9 10 10 10 10 10 11 12 12 12 13 13 13 12 11 12 12 11 12 12 12 11 9
13 13 15 14 14 13 12 10 10 9 10 9 9 9 10 9 10 9 8 8 9 9 9 9 10 10 11 11 12 12 12 12 12 12 12 13 11 11 11 11 11 12
12 13 14 13 13 14 12 12 10 10 9 10 9 9 10 10 10 11 9 8 10 10 9 8 8 9 9 10 10 9 9 10 10 11 11 10 10 10 10 10 11 13
13 12 12 12 12 12 12 12 12 11 10 9 9 9 11 11 10 10 10 9 10 11 10 10 8 8 9 9 9 10 9 9 9 9 10 9 8 8 9 11 12 13
10 12 13 13 13 14 13 12 12 12 11 10 10 9 9 10 10 10 9 10 9 11 11 10 10 9 8 9 8 7 8 9 9 9 10 10 10 9 11 11 12 13
11 11 11 11 11 12 12 11 11 10 10 9 10 9 9 10 10 10 10 9 11 10 11 11 11 10 8 9 9 9 8 9 10 11 12 10 10 10 10 10 11 11
13 11 11 11 11 11 10 12 11 11 10 10 9 9 8 11 11 9 9 10 10 11 10 11 11 11 10 10 11 11 10 8 10 11 11 12 10 11 11 9 9 10
15 13 13 12 12 11 11 11 11 10 10 11 10 10 8 9 10 10 10 10 10 10 10 10 11 11 9 9 10 11 12 10 8 9 11 12 12 12 12 12 11 11
14 14 14 13 12 11 11 10 11 10 9 9 10 10 12 8 9 11 11 10 10 10 9 10 10 10 10 9 10 10 11 12 10 9 8 8 10 11 11 10 10 11
12 11 12 11 10 10 11 12 11 11 9 11 11 10 10 11 9 9 10 11 10 11 10 10 9 10 10 10 9 7 9 10 10 9 8 8 8 9 5 9 10 9
13 13 12 11 11 11 10 10 11 11 11 10 11 12 9 9 10 9 10 11 11 11 10 10 9 8 9 10 10 9 9 9 9 9 9 9 9 9 9 8 8 9
14 14 13 13 11 11 10 10 9 10 12 12 10 11 11 10 8 9 7 9 10 9 10 9 9 8 8 8 9 9 9 10 9 9 9 9 9 10 9 9 8 9
14 13 14 13 11 12 12 10 9 8 9 9 10 10 10 10 10 9 8 8 9 9 9 8 8 8 8 8 9 8 8 8 9 8 9 9 9 9 9 8 8 9
10 12 13 12 13 12 12 10 9 9 9 9 8 8 7 8 8 8 9 9 9 9 9 8 7 8 9 8 8 9 8 9 9 9 9 8 8 8 8 8 8 7
13 14 15 14 15 14 11 11 11 12 12 12 11 10 9 9 9 9 8 8 8 8 12 12 13 13 11 11 9 10 7 7 7 9 10 9 9 9 9 9 9 8
14 13 15 18 15 14 13 14 14 14 14 14 13 13 12 11 10 11 11 11 12 13 15 15 14 13 12 8 6 5 6 6 7 6 6 7 9 10 10 11 10 10
15 17 20 18 18 16 15 14 15 16 16 15 15 15 14 13 15 14 13 13 16 18 17 15 15 12 11 12 10 8 5 8 7 6 6 7 7 7 8 7 8 8
18 22 21 21 19 17 15 16 17 18 18 17 18 14 13 17 15 14 15 15 17 19 18 16 15 13 12 12 11 9 7 3 8 7 7 6 6 7 8 9 8 8
19 21 22 20 18 17 17 18 19 19 16 15 15 16 16 16 16 16 15 16 16 17 17 17 18 14 14 15 13 11 9 6 11 9 8 7 7 7 7 8 8 8
20 20 19 19 20 19 19 20 18 17 18 16 17 17 17 17 17 17 16 15 15 15 16 18 19 15 16 17 16 13 9 6 10 9 9 9 9 9 8 8 8 8
18 18 17 17 20 19 19 19 18 17 17 15 16 16 15 16 17 17 16 16 14 13 15 17 18 16 16 17 17 15 9 11 11 10 10 10 10 10 9 8 9 9
17 17 16 15 15 16 14 15 15 15 13 11 16 15 16 16 15 16 16 16 15 15 14 15 17 16 15 17 17 17 11 13 12 11 11 11 10 9 8 8 8 9
15 15 16 14 15 16 14 13 12 12 13 11 13 12 14 13 12 14 15 15 15 16 15 13 15 14 15 16 17 17 11 14 12 12 11 11 11 10 10 9 8 2
14 16 16 14 17 15 14 13 12 12 12 12 12 11 12 11 11 11 11 12 13 13 12 14 14 13 15 15 16 17 17 15 15 14 13 13 13 13 11 10 12 6
14 15 14 12 14 13 14 14 12 12 11 11 11 11 13 11 11 11 10 10 10 11 12 14 15 15 17 13 14 14 15 16 14 14 14 13 13 14 14 12 12 13
Wind_Speed
7 6 7 7 6 6 6 6 4 4 4 3 4 4 3 3 3 3 3 2 3 3 4 5 5 5 4 4 4 4 7 8 7 6 7 6 5 5 5 6 5 4
7 7 6 6 5 5 5 5 5 5 4 4 2 3 3 3 2 2 3 3 4 4 4 4 4 5 5 5 5 5 5 5 5 4 5 6 5 5 5 6 5 4
7 6 8 8 7 7 6 4 4 4 4 4 3 3 4 3 4 3 3 3 3 3 3 3 4 4 4 4 5 5 4 5 5 5 5 5 4 4 4 5 4 5
7 7 7 7 6 7 6 5 4 4 3 4 3 3 4 3 4 5 4 3 3 3 2 2 3 3 3 3 4 3 3 3 3 4 4 3 3 3 3 4 4 5
7 5 5 6 5 6 5 5 6 4 4 4 3 4 4 5 4 4 4 3 4 4 3 3 2 2 3 3 3 3 3 3 3 3 3 3 3 3 3 4 5 6
3 4 5 5 5 6 5 5 5 5 5 5 4 3 3 4 4 4 3 4 3 4 5 4 4 3 2 3 2 2 3 3 3 3 4 3 3 3 3 4 5 6
4 3 4 4 5 5 6 5 5 4 4 3 4 3 3 4 4 4 3 3 4 4 4 4 4 3 2 3 2 2 2 2 4 4 4 4 4 4 3 4 4 4
7 5 5 4 6 5 5 5 5 4 4 4 4 3 3 4 4 3 3 4 4 4 4 4 4 4 4 3 4 4 4 2 3 4 5 5 4 5 4 3 3 4
8 7 6 7 6 5 5 5 5 5 4 5 4 4 2 3 4 4 4 4 4 3 4 4 4 4 3 3 4 5 5 4 3 4 5 6 5 5 5 5 5 4
7 7 8 7 6 5 6 5 5 4 3 4 4 4 4 3 3 4 5 4 4 4 3 3 4 4 4 3 3 4 5 5 4 3 2 3 4 4 4 4 4 4
7 6 6 5 4 4 5 6 5 5 4 4 4 4 4 4 3 3 4 4 4 4 4 3 3 3 4 4 3 2 3 4 4 3 3 3 3 3 3 3 3 3
7 7 6 6 5 5 5 4 5 5 5 4 4 5 4 3 4 3 3 4 4 4 4 3 3 2 3 3 4 3 3 3 3 3 3 3 3 3 3 2 2 3
7 7 7 7 6 5 4 4 3 4 5 6 4 5 5 4 3 3 2 3 4 3 3 3 3 2 2 3 3 3 3 3 3 3 3 3 3 3 3 3 2 2
6 6 7 7 6 6 5 4 3 2 3 4 4 4 4 4 4 3 3 2 3 3 3 2 2 2 2 2 3 2 2 2 3 3 3 3 3 3 3 2 2 3
4 5 7 6 6 6 6 5 4 3 3 3 3 2 2 2 2 2 3 3 3 3 3 2 2 2 2 1 1 3 2 3 3 3 3 3 3 3 2 2 2 2
7 7 7 7 8 8 6 5 5 5 5 5 4 4 3 3 3 3 2 2 2 3 5 5 5 4 6 7 6 3 1 1 2 3 4 4 3 3 3 3 3 3
6 6 7 9 7 7 6 7 7 6 6 7 6 6 5 5 4 4 4 4 5 6 7 6 5 5 7 7 6 4 1 1 1 1 1 2 3 4 4 4 4 3
7 8 10 9 9 9 8 7 7 8 8 7 7 8 6 6 7 6 6 6 7 9 8 7 6 9 8 8 6 5 1 2 2 1 0 1 1 1 2 2 3 2
7 9 11 11 10 9 8 8 9 9 8 9 9 7 6 8 7 7 7 7 8 9 9 8 7 10 9 9 8 7 4 1 2 2 1 1 1 0 2 2 2 2
9 10 12 11 10 9 9 10 10 9 8 7 7 8 8 8 9 9 7 8 8 8 8 8 9 10 10 11 10 8 5 2 4 3 2 2 1 1 1 1 1 2
10 11 11 11 11 10 10 11 10 8 9 8 8 8 8 8 8 8 8 7 7 6 7 8 8 11 12 13 12 9 7 3 4 3 2 3 3 3 2 2 1 1
9 10 10 9 11 10 10 10 9 9 9 6 7 8 7 7 8 8 8 8 6 6 7 8 9 13 13 14 13 11 6 5 4 4 4 3 3 3 3 2 2 2
9 9 9 8 7 8 8 8 8 8 7 4 7 7 8 8 7 7 7 7 8 7 7 7 8 11 12 13 13 13 7 5 4 4 4 4 4 3 2 2 2 3
8 8 8 7 7 8 7 7 6 5 6 5 6 5 7 6 5 5 6 6 7 8 7 5 7 9 11 12 13 13 8 6 5 4 4 4 3 3 2 2 2 2
7 8 9 7 7 7 7 7 6 5 5 5 5 5 5 4 4 4 5 5 6 6 8 7 6 7 10 11 11 12 9 5 5 5 5 5 5 4 3 2 3 1
7 9 9 7 5 6 7 6 5 5 5 5 5 3 4 4 5 5 5 5 5 5 5 6 7 7 10 11 12 12 12 7 5 5 5 5 5 5 6 5 4 4
Wind_Direction
158 155 148 153 159 159 159 161 163 162 162 161 171 155 154 120 127 135 130 149 159 165 161 175 180 183 185 181 179 146 173 183 182 192 193 200 202 198 209 212 204 214
163 157 149 153 152 156 156 160 157 168 160 160 155 141 128 129 117 126 132 133 142 142 144 148 160 169 172 179 179 177 170 176 174 171 180 190 190 194 207 204 201 176
161 160 155 160 158 158 155 147 148 156 151 146 147 147 134 127 127 130 135 133 127 128 137 143 147 152 159 159 165 173 164 160 165 167 184 184 184 197 188 186 182 176
172 165 159 158 156 154 152 148 143 143 134 148 160 136 130 126 129 133 134 133 124 123 121 127 129 135 144 144 156 155 147 149 141 157 163 164 180 189 177 185 174 176
169 159 153 152 152 147 148 151 150 151 149 142 135 145 139 136 136 129 129 126 125 130 134 133 129 128 134 144 157 141 141 131 139 165 162 153 154 173 171 183 177 176
143 150 150 150 150 150 157 156 150 147 142 148 157 152 135 128 127 125 128 127 126 131 138 137 137 134 144 143 153 133 142 147 140 162 161 157 154 170 168 185 179 182
134 130 131 139 148 158 156 142 138 141 147 140 138 146 137 130 126 126 126 124 131 137 137 138 137 139 145 148 148 137 126 124 145 163 158 145 145 148 156 174 181 180
144 140 144 149 151 159 158 148 147 144 133 141 147 130 146 131 125 116 120 129 129 133 134 135 137 139 153 160 152 143 135 137 148 152 142 136 144 140 144 149 158 175
140 143 146 153 157 157 158 147 132 129 145 150 139 131 115 120 121 122 124 129 129 127 133 130 133 137 150 158 146 144 137 135 139 144 147 150 147 144 146 146 151 153
140 143 148 153 155 155 148 139 134 129 136 133 129 138 131 110 116 125 131 134 128 130 134 135 139 141 145 151 143 140 140 142 145 143 139 128 127 134 137 146 137 134
121 125 126 132 131 135 136 134 132 132 136 139 138 134 130 131 127 131 135 141 144 145 143 144 144 146 142 138 132 125 128 136 142 139 132 118 106 109 121 129 139 130
104 101 99 95 98 98 103 118 136 144 139 137 146 137 133 135 138 144 142 139 144 141 141 135 135 140 141 139 132 131 126 122 124 132 126 114 104 97 95 84 88 108
103 104 104 103 99 102 106 122 135 135 144 142 146 145 147 147 148 146 136 132 125 132 136 138 139 138 131 136 140 143 143 130 127 124 123 111 106 105 97 88 100 124
77 91 93 90 95 92 91 90 92 104 114 118 140 151 153 155 161 161 140 148 128 134 119 127 144 156 155 155 160 164 162 157 146 140 127 125 120 116 112 115 115 134
66 80 84 79 69 68 63 61 76 84 84 93 92 92 81 101 116 153 156 155 145 141 136 95 60 33 28 359 189 176 190 180 175 168 160 144 142 142 144 149 154 148
69 64 74 73 66 61 47 39 49 67 67 64 61 56 61 66 91 98 102 121 139 76 66 63 55 53 18 37 24 2 312 254 197 190 181 178 176 170 173 187 185 186
70 67 57 70 77 71 62 61 56 56 62 60 55 52 50 52 61 71 75 81 85 90 83 70 48 24 10 56 60 37 4 25 308 269 261 201 190 188 193 191 194 197
65 73 75 67 66 66 61 59 56 54 55 52 52 49 45 48 52 53 62 73 81 80 75 67 61 20 12 42 65 78 71 155 127 89 32 338 327 277 238 213 201 186
71 78 79 73 67 65 65 63 62 59 53 54 52 41 44 49 43 45 51 62 74 76 71 63 62 25 28 31 34 38 31 211 108 117 150 122 111 342 338 338 343 329
75 77 75 71 64 60 62 63 62 58 57 58 57 50 46 47 43 42 44 55 66 77 75 64 51 21 33 38 36 32 26 43 78 78 77 75 61 29 347 328 318 308
75 75 75 75 73 67 61 62 63 58 54 51 56 54 49 44 38 41 36 41 50 61 71 62 44 19 32 33 31 25 11 23 66 73 67 66 55 49 26 11 339 297
60 64 65 75 81 72 68 66 61 61 61 57 65 63 54 48 42 36 35 36 37 46 64 64 47 27 28 30 24 13 3 49 42 41 39 31 41 37 27 21 5 342
51 60 65 55 66 76 71 67 68 62 58 52 67 64 61 52 44 38 26 21 19 31 49 62 53 30 28 29 26 8 10 43 36 43 43 40 37 23 11 8 355 350
67 58 60 60 60 70 72 73 67 67 62 35 61 65 69 66 60 54 44 31 19 20 21 47 56 41 29 29 27 16 5 28 21 26 29 23 12 23 15 1 61 93
67 77 68 47 56 65 72 73 76 70 60 61 68 70 76 77 66 61 51 39 24 11 3 20 37 46 34 28 28 24 13 25 19 17 14 13 355 350 356 354 350 136
74 77 76 71 52 61 64 68 69 79 87 84 66 62 70 69 77 62 41 31 15 6 9 14 20 26 29 20 22 20 12 3 24 18 10 356 347 339 329 334 340 334